Location: Newark
(55.7083°N, 13.1992°E)
Time: 11:35:47
(UTC+00:00)

N. Korean satellite - Pass Details

Date: 02 February 2020
Orbit: 456 x 505 km, 97.2° (Epoch: 23 February)

Event Time Altitude Azimuth Distance (km) Brightness Sun altitude
Rises 03:49:08 0° 28° (NNE) 2,566 10.7 -26.8°
Reaches altitude 10° 03:52:03 10° 55° (NE) 1,690 10.1 -26.4°
Maximum altitude 03:54:01 14° 88° (E) 1,460 9.9 -26.1°
Drops below altitude 10° 03:56:00 10° 121° (ESE) 1,696 9.9 -25.9°
Sets 03:58:56 0° 147° (SSE) 2,582 10.6 -25.4°
